This is the latest recevied weather packets stored in our database for station/object EB2EMZ-14. If no packets are shown the sender has not sent any weather packets the latest 10 day(s).
| Time | Temp. | Humidity | Pressure | Rain* | Wind** | Luminosity | Snow |
|---|---|---|---|---|---|---|---|
| 1777810517 | 19.44° C | 64% | 1012 hPa | 0 mm | - | 0 W/m² | - |
| 1777810218 | 19.44° C | 64% | 1012.1 hPa | 0 mm | - | 0 W/m² | - |
| 1777809917 | 19.44° C | 64% | 1012.1 hPa | 0 mm | - | 0 W/m² | - |
| 1777809617 | 19.44° C | 66% | 1012.1 hPa | 0 mm | - | 0 W/m² | - |
| 1777809319 | 18.89° C | 68% | 1012.1 hPa | 0 mm | - | 0 W/m² | - |
| 1777809017 | 17.78° C | 67% | 1012.2 hPa | 0 mm | - | 0 W/m² | - |
| 1777808717 | 17.78° C | 66% | 1012.2 hPa | 0 mm | - | 0 W/m² | - |
| 1777808417 | 17.78° C | 63% | 1012.3 hPa | 0 mm | - | 0 W/m² | - |
| 1777808117 | 18.89° C | 62% | 1012.1 hPa | 0 mm | - | 0 W/m² | - |
| 1777807817 | 20° C | 64% | 1012.2 hPa | 0 mm | - | 0 W/m² | - |
| 1777807518 | 20° C | 66% | 1012.2 hPa | 0 mm | - | 0 W/m² | - |
| 1777807217 | 20° C | 67% | 1012.2 hPa | 0 mm | - | 0 W/m² | - |
| 1777806917 | 19.44° C | 66% | 1012.4 hPa | 0 mm | - | 0 W/m² | - |
| 1777806618 | 19.44° C | 65% | 1012.2 hPa | 0 mm | - | 0 W/m² | - |
| 1777806320 | 20° C | 63% | 1012.4 hPa | 0 mm | - | 0 W/m² | - |
| 1777806017 | 20.56° C | 62% | 1012.3 hPa | 0 mm | - | 0 W/m² | - |
| 1777805717 | 21.11° C | 61% | 1012.3 hPa | 0 mm | - | 0 W/m² | - |
| 1777805417 | 21.67° C | 59% | 1012.2 hPa | 0 mm | - | 0 W/m² | - |
| 1777805118 | 21.67° C | 59% | 1012.2 hPa | 0 mm | - | 0 W/m² | - |
| 1777804817 | 21.67° C | 59% | 1012 hPa | 0 mm | - | 0 W/m² | - |
| 1777804517 | 21.67° C | 59% | 1012.1 hPa | 0 mm | - | 0 W/m² | - |
| 1777804217 | 21.67° C | 59% | 1012.1 hPa | 0 mm | - | 0 W/m² | - |
| 1777803918 | 21.67° C | 60% | 1012.1 hPa | 0 mm | - | 0 W/m² | - |
| 1777803618 | 21.67° C | 60% | 1012.1 hPa | 0 mm | - | 0 W/m² | - |
| 1777803317 | 21.11° C | 60% | 1012.1 hPa | 0 mm | - | 0 W/m² | - |
* Rain latest hour (hover to see other rain measurements)
** Current wind speed in m/s (hover to see current wind gust speed)